When you browse on this site, cookies collect data to enhance your experience and personalize the content and advertising you see.
Visit our Privacy Policy to learn more. By continuing to use the site, you agree to this use of cookies and data.
  • In Sweden
  • List of Countries
  • For 7 days
  • Water Temperature
  • Weather Map
  • Weather Widgets
  • user-avatar
    Login

    Hourly Weather Spring Valley

    Today, 3 June, Wednesday

    Time Temperature Precipitation Wind Pressure Humidity
    00:00 +23°C° 0 mm 1 mps 745 mmHg 58%
    01:00 +24°C° 0 mm 1 mps 744 mmHg 56%
    02:00 +23°C° 0 mm 1 mps 744 mmHg 58%
    03:00 +23°C° 0 mm 1 mps 744 mmHg 60%
    04:00 +22°C° 0 mm 1 mps 744 mmHg 62%
    05:00 +24°C° 0 mm 1 mps 744 mmHg 57%
    06:00 +25°C° 0 mm 1 mps 744 mmHg 51%
    07:00 +27°C° 0 mm 1 mps 744 mmHg 46%
    08:00 +29°C° 0 mm 2 mps 744 mmHg 41%
    09:00 +30°C° 0 mm 2 mps 744 mmHg 36%
    10:00 +33°C° 0 mm 3 mps 744 mmHg 32%
    11:00 +34°C° 0 mm 3 mps 744 mmHg 30%
    12:00 +34°C° 0 mm 4 mps 744 mmHg 28%
    13:00 +35°C° 0 mm 4 mps 744 mmHg 27%
    14:00 +35°C° 0 mm 4 mps 743 mmHg 27%
    15:00 +34°C° 0 mm 3 mps 743 mmHg 28%
    16:00 +34°C° 0 mm 3 mps 743 mmHg 29%
    17:00 +31°C° 0 mm 3 mps 743 mmHg 33%
    18:00 +29°C° 0 mm 2 mps 743 mmHg 38%
    19:00 +27°C° 0 mm 2 mps 743 mmHg 43%
    20:00 +26°C° 0 mm 1 mps 743 mmHg 47%
    21:00 +26°C° 0 mm 1 mps 743 mmHg 50%
    22:00 +25°C° 0 mm 1 mps 744 mmHg 54%
    23:00 +24°C° 0 mm 1 mps 743 mmHg 54%

    Tomorrow, 4 June, Thursday

    Time Temperature Precipitation Wind Pressure Humidity
    00:00 +24°C° 0 mm 1 mps 743 mmHg 55%
    01:00 +24°C° 0 mm 1 mps 742 mmHg 55%
    02:00 +21°C° 0 mm 0 mps 742 mmHg 55%
    03:00 +21°C° 0 mm 0 mps 742 mmHg 55%
    04:00 +21°C° 0 mm 0 mps 742 mmHg 55%
    05:00 +24°C° 0 mm 1 mps 742 mmHg 52%
    06:00 +25°C° 0 mm 1 mps 742 mmHg 48%
    07:00 +27°C° 0 mm 1 mps 743 mmHg 44%
    08:00 +28°C° 0 mm 2 mps 743 mmHg 40%
    09:00 +29°C° 0 mm 2 mps 743 mmHg 36%
    10:00 +31°C° 0 mm 2 mps 743 mmHg 32%
    11:00 +31°C° 0 mm 3 mps 742 mmHg 30%
    12:00 +33°C° 0 mm 3 mps 742 mmHg 29%
    13:00 +33°C° 0 mm 4 mps 742 mmHg 28%
    14:00 +33°C° 0 mm 3 mps 742 mmHg 30%
    15:00 +31°C° 0 mm 3 mps 741 mmHg 32%
    16:00 +30°C° 0 mm 3 mps 741 mmHg 34%
    17:00 +28°C° 0 mm 3 mps 741 mmHg 40%
    18:00 +26°C° 0 mm 2 mps 741 mmHg 46%
    19:00 +25°C° 0 mm 2 mps 741 mmHg 52%
    20:00 +24°C° 0 mm 1 mps 741 mmHg 56%
    21:00 +23°C° 0 mm 1 mps 742 mmHg 59%
    22:00 +23°C° 0 mm 1 mps 742 mmHg 63%
    23:00 +22°C° 0 mm 1 mps 742 mmHg 64%

    Day after tomorrow, 5 June, Friday

    Time Temperature Precipitation Wind Pressure Humidity
    00:00 +22°C° 0 mm 1 mps 741 mmHg 65%
    01:00 +22°C° 0 mm 1 mps 741 mmHg 66%
    02:00 +21°C° 0 mm 1 mps 741 mmHg 71%
    03:00 +20°C° 0 mm 1 mps 741 mmHg 77%
    04:00 +19°C° 0 mm 1 mps 740 mmHg 82%
    05:00 +20°C° 0 mm 1 mps 741 mmHg 78%
    06:00 +20°C° 0 mm 2 mps 741 mmHg 74%
    07:00 +21°C° 0 mm 2 mps 741 mmHg 69%
    08:00 +22°C° 0 mm 3 mps 741 mmHg 64%
    09:00 +24°C° 0 mm 3 mps 742 mmHg 59%
    10:00 +25°C° 0 mm 3 mps 742 mmHg 54%
    11:00 +25°C° 0 mm 4 mps 741 mmHg 53%
    12:00 +25°C° 0 mm 5 mps 741 mmHg 52%
    13:00 +24°C° 0 mm 6 mps 741 mmHg 51%
    14:00 +24°C° 0 mm 6 mps 741 mmHg 55%
    15:00 +23°C° 0 mm 5 mps 741 mmHg 58%
    16:00 +22°C° 0 mm 5 mps 741 mmHg 61%
    17:00 +21°C° 0 mm 4 mps 741 mmHg 66%
    18:00 +20°C° 0 mm 3 mps 742 mmHg 71%
    19:00 +19°C° 0 mm 3 mps 742 mmHg 75%
    20:00 +19°C° 0 mm 2 mps 742 mmHg 74%
    21:00 +19°C° 0 mm 2 mps 743 mmHg 73%
    22:00 +19°C° 0 mm 2 mps 743 mmHg 71%
    23:00 +18°C° 0 mm 2 mps 743 mmHg 72%

    6 June, Saturday

    Time Temperature Precipitation Wind Pressure Humidity
    00:00 +18°C° 0 mm 2 mps 743 mmHg 72%
    01:00 +18°C° 0 mm 2 mps 743 mmHg 72%
    02:00 +18°C° 0 mm 2 mps 743 mmHg 73%
    03:00 +18°C° 0 mm 2 mps 743 mmHg 74%
    04:00 +18°C° 0 mm 1 mps 743 mmHg 75%
    05:00 +19°C° 0 mm 1 mps 743 mmHg 73%
    06:00 +19°C° 0 mm 1 mps 743 mmHg 71%
    07:00 +19°C° 0 mm 1 mps 744 mmHg 69%
    08:00 +20°C° 0 mm 2 mps 744 mmHg 63%
    09:00 +21°C° 0 mm 2 mps 744 mmHg 57%
    10:00 +22°C° 0 mm 3 mps 744 mmHg 51%
    11:00 +23°C° 0 mm 4 mps 743 mmHg 50%
    12:00 +25°C° 0 mm 4 mps 743 mmHg 48%
    13:00 +25°C° 0 mm 5 mps 743 mmHg 46%
    14:00 +25°C° 0 mm 5 mps 743 mmHg 49%
    15:00 +23°C° 0 mm 5 mps 742 mmHg 52%
    16:00 +22°C° 0 mm 5 mps 742 mmHg 55%
    17:00 +21°C° 0 mm 5 mps 742 mmHg 61%
    18:00 +20°C° 0 mm 5 mps 742 mmHg 67%
    19:00 +19°C° 0 mm 5 mps 743 mmHg 72%
    20:00 +19°C° 0 mm 4 mps 743 mmHg 73%
    21:00 +19°C° 0 mm 4 mps 743 mmHg 74%
    22:00 +19°C° 0 mm 4 mps 743 mmHg 75%
    23:00 +18°C° 0 mm 4 mps 743 mmHg 74%

    7 June, Sunday

    Time Temperature Precipitation Wind Pressure Humidity
    00:00 +18°C° 0 mm 3 mps 742 mmHg 74%
    01:00 +18°C° 0 mm 3 mps 742 mmHg 73%
    02:00 +17°C° 0 mm 3 mps 742 mmHg 73%
    03:00 +17°C° 0 mm 2 mps 742 mmHg 73%
    04:00 +16°C° 0 mm 2 mps 742 mmHg 73%
    05:00 +17°C° 0 mm 2 mps 742 mmHg 69%
    06:00 +17°C° 0 mm 3 mps 742 mmHg 65%
    07:00 +18°C° 0 mm 3 mps 742 mmHg 62%
    08:00 +19°C° 0 mm 3 mps 742 mmHg 56%
    09:00 +21°C° 0 mm 3 mps 742 mmHg 51%
    10:00 +22°C° 0 mm 3 mps 742 mmHg 46%
    11:00 +23°C° 0 mm 4 mps 742 mmHg 45%
    12:00 +25°C° 0 mm 4 mps 742 mmHg 45%
    13:00 +25°C° 0 mm 5 mps 742 mmHg 45%
    14:00 +25°C° 0 mm 5 mps 741 mmHg 46%
    15:00 +23°C° 0 mm 6 mps 741 mmHg 48%
    16:00 +23°C° 0 mm 7 mps 741 mmHg 49%
    17:00 +22°C° 0 mm 6 mps 741 mmHg 50%
    18:00 +20°C° 0 mm 5 mps 741 mmHg 51%
    19:00 +19°C° 0 mm 4 mps 742 mmHg 51%
    20:00 +19°C° 0 mm 3 mps 742 mmHg 55%
    21:00 +18°C° 0 mm 2 mps 742 mmHg 58%
    22:00 +17°C° 0 mm 2 mps 743 mmHg 62%
    23:00 +18°C° 0 mm 1 mps 742 mmHg 63%

    8 June, Monday

    Time Temperature Precipitation Wind Pressure Humidity
    00:00 +18°C° 0 mm 1 mps 742 mmHg 65%
    01:00 +16°C° 0 mm 1 mps 742 mmHg 66%
    02:00 +16°C° 0 mm 1 mps 742 mmHg 67%
    03:00 +16°C° 0 mm 1 mps 742 mmHg 67%
    04:00 +15°C° 0 mm 1 mps 742 mmHg 67%
    05:00 +18°C° 0 mm 1 mps 743 mmHg 61%
    06:00 +19°C° 0 mm 1 mps 743 mmHg 55%
    07:00 +18°C° 0 mm 0 mps 743 mmHg 49%
    08:00 +22°C° 0 mm 1 mps 744 mmHg 43%
    09:00 +23°C° 0 mm 2 mps 744 mmHg 36%
    10:00 +25°C° 0 mm 2 mps 744 mmHg 30%
    11:00 +26°C° 0 mm 3 mps 744 mmHg 28%
    12:00 +27°C° 0 mm 4 mps 744 mmHg 27%
    13:00 +28°C° 0 mm 5 mps 743 mmHg 25%
    14:00 +28°C° 0 mm 5 mps 743 mmHg 27%
    15:00 +27°C° 0 mm 5 mps 743 mmHg 29%
    16:00 +27°C° 0 mm 4 mps 743 mmHg 30%
    17:00 +25°C° 0 mm 4 mps 743 mmHg 32%
    18:00 +24°C° 0 mm 3 mps 743 mmHg 34%
    19:00 +21°C° 0 mm 2 mps 743 mmHg 36%
    20:00 +20°C° 0 mm 2 mps 743 mmHg 40%
    21:00 +20°C° 0 mm 2 mps 744 mmHg 43%
    22:00 +20°C° 0 mm 1 mps 744 mmHg 47%
    23:00 +19°C° 0 mm 1 mps 744 mmHg 48%
    Show more